World > North America > United States > Ohio   City of Dayton, OH
Hourly Weather in Dayton, OhioDayton, Ohio Hourly Weather

Dayton, OH Hourly Weather

Hourly Weather Dayton, OhioHourly Weather in Dayton, OH
Lat: 39.78N, Lon: 84.2W  ICAO: KFFO
Web Search
Dayton Weather Warning NWS WEATHER ALERT FOR THE DAYTON, OH AREA - Issued: 506 AM EST Mon Dec 6 2021 Dayton Weather Warning  

Pass this page to a friend. Tell them to point their camera at the QR Code near the bottom of this page.

Feedback

Dayton Hourly Weather

36 Hour Weather Scroll   °F Click to change Dayton hourly weather to Imperial units.Click to change Dayton hourly weather to Metric units. °C
Currently, Overcast, temperature is 41°F5°C, dew point 31°F-1°C, humidity 68%. Wind direction is WNW at 14 mph23 km/h with visibility of 10.00 mi16 km. Barometric pressure is 29.83 in1010 mb.

Dec 06
9:00 AM

Dec 06
10:00 AM

Dec 06
11:00 AM

Dec 06
NOON

Dec 06
1:00 PM

Dec 06
2:00 PM

Dec 06
3:00 PM

Dec 06
4:00 PM

Dec 06
5:00 PM

Dec 06
6:00 PM

Dec 06
7:00 PM

Dec 06
8:00 PM

Dec 06
9:00 PM

Dec 06
10:00 PM

Dec 06
11:00 PM

Dec 07
MIDNIGHT

Dec 07
1:00 AM

Dec 07
2:00 AM

Dec 07
3:00 AM

Dec 07
4:00 AM

Dec 07
5:00 AM

Dec 07
6:00 AM

Dec 07
7:00 AM

Dec 07
8:00 AM

Dec 07
9:00 AM

Dec 07
10:00 AM

Dec 07
11:00 AM

Dec 07
NOON

Dec 07
1:00 PM

Dec 07
2:00 PM

Dec 07
3:00 PM

Dec 07
4:00 PM

Dec 07
5:00 PM

Dec 07
6:00 PM

Dec 07
7:00 PM

Dec 07
8:00 PM
Cloudy Cloudy Cloudy Mostly Cloudy Mostly Cloudy Mostly Cloudy Mostly Clear Mostly Clear Mostly Clear Clear Clear Clear Clear Clear Clear Clear Clear Clear Partly Cloudy Partly Cloudy Partly Cloudy Mostly Cloudy Mostly Cloudy Mostly Cloudy Cloudy Cloudy Cloudy Cloudy Cloudy Cloudy Cloudy Cloudy Cloudy Cloudy Cloudy Cloudy
Cloudy Cloudy Cloudy Mostly Cloudy Mostly Cloudy Mostly Cloudy Mostly Clear Mostly Clear Mostly Clear Clear Clear Clear Clear Clear Clear Clear Clear Clear Partly Cloudy Partly Cloudy Partly Cloudy Mostly Cloudy Mostly Cloudy Mostly Cloudy Cloudy Cloudy Cloudy Cloudy Cloudy Cloudy Cloudy Cloudy Cloudy Cloudy Cloudy Cloudy
44°F7°C 42°F6°C 42°F6°C 41°F5°C 41°F5°C 40°F4°C 39°F4°C 38°F3°C 36°F2°C 33°F1°C 31°F-1°C 29°F-2°C 27°F-3°C 25°F-4°C 24°F-4°C 22°F-6°C 21°F-6°C 20°F-7°C 20°F-7°C 19°F-7°C 19°F-7°C 18°F-8°C 18°F-8°C 20°F-7°C 23°F-5°C 25°F-4°C 27°F-3°C 29°F-2°C 31°F-1°C 32°F0°C 32°F0°C 33°F1°C 32°F0°C 30°F-1°C 29°F-2°C 28°F-2°C
Rain Rain Rain Snow Snow - - - - - - - - - - - - - - - - - - - - - - - - - - - - - - Snow
42% 42% 42% 42% 42% 2% 2% 2% 2% 2% 2% 1% 1% 1% 1% 1% 1% 0% 0% 0% 0% 0% 0% 0% 0% 0% 0% 0% 0% 17% 17% 17% 17% 17% 17% 42%
41°F5°C 38°F3°C 35°F2°C 32°F0°C 29°F-2°C 27°F-3°C 24°F-4°C 22°F-6°C 21°F-6°C 20°F-7°C 19°F-7°C 18°F-8°C 16°F-9°C 15°F-9°C 14°F-10°C 14°F-10°C 13°F-11°C 12°F-11°C 12°F-11°C 11°F-12°C 11°F-12°C 10°F-12°C 10°F-12°C 10°F-12°C 10°F-12°C 10°F-12°C 9°F-13°C 9°F-13°C 8°F-13°C 9°F-13°C 9°F-13°C 10°F-12°C 12°F-11°C 13°F-11°C 15°F-9°C 15°F-9°C
89% 86% 76% 70% 62% 59% 54% 52% 54% 58% 61% 63% 63% 65% 65% 71% 71% 71% 71% 70% 70% 70% 70% 65% 57% 52% 46% 42% 37% 37% 37% 38% 43% 49% 55% 58%
W W W W W W W W W W W W W W W W W W WNW WNW WNW WNW WNW WNW WNW WNW SSW SSW SW S SSE SE ESE E E ENE
14 mph 14 mph 14 mph 17 mph 17 mph 17 mph 18 mph 18 mph 18 mph 15 mph 15 mph 15 mph 12 mph 12 mph 12 mph 10 mph 10 mph 10 mph 7 mph 7 mph 7 mph 2 mph 2 mph 2 mph 2 mph 2 mph 2 mph 3 mph 3 mph 3 mph 3 mph 3 mph 3 mph 3 mph 3 mph 3 mph
6 mi10 km 10 mi16 km 10 mi16 km 10 mi16 km 10 mi16 km 10 mi16 km 10 mi16 km 10 mi16 km 10 mi16 km 10 mi16 km 10 mi16 km 10 mi16 km 10 mi16 km 10 mi16 km 10 mi16 km 10 mi16 km 10 mi16 km 10 mi16 km 10 mi16 km 10 mi16 km 10 mi16 km 10 mi16 km 10 mi16 km 10 mi16 km 10 mi16 km 10 mi16 km 10 mi16 km 10 mi16 km 10 mi16 km 10 mi16 km 10 mi16 km 10 mi16 km 10 mi16 km 10 mi16 km 10 mi16 km 10 mi16 km
Hour (EST)
Weather
Clouds
Temperature
Precip. Type
POP
Dewpoint
Humidity
Wind Direction
Wind Speed
Visibility
POP = Probability of Precipitation. ** Indicates missing data/values from model statistics.

24 Hour Forecast

Today - Mostly cloudy. Rain likely with a slight chance of thunderstorms this morning. Highs in the upper 40s. Temperatures falling into the lower 30s this afternoon. West winds 15 to 20 mph with gusts up to 35 mph. Chance of rain 70%.
Tonight - Partly cloudy. Much cooler with lows around 20. Northwest winds 10 to 15 mph. Gusts up to 30 mph in the evening.

48 Hour Forecast API Feed


Mon, Dec 6
9:00 am

Mon, Dec 6
10:00 am

Mon, Dec 6
11:00 am

Mon, Dec 6
Noon

Mon, Dec 6
1:00 pm

Mon, Dec 6
2:00 pm

Mon, Dec 6
3:00 pm

Mon, Dec 6
4:00 pm

Mon, Dec 6
5:00 pm

Mon, Dec 6
6:00 pm

Mon, Dec 6
7:00 pm

Mon, Dec 6
8:00 pm

Mon, Dec 6
9:00 pm

Mon, Dec 6
10:00 pm

Mon, Dec 6
11:00 pm

Tue, Dec 7
Midnight

Tue, Dec 7
1:00 am

Tue, Dec 7
2:00 am

Tue, Dec 7
3:00 am

Tue, Dec 7
4:00 am

Tue, Dec 7
5:00 am

Tue, Dec 7
6:00 am

Tue, Dec 7
7:00 am

Tue, Dec 7
8:00 am

Tue, Dec 7
9:00 am

Tue, Dec 7
10:00 am

Tue, Dec 7
11:00 am

Tue, Dec 7
Noon

Tue, Dec 7
1:00 pm

Tue, Dec 7
2:00 pm

Tue, Dec 7
3:00 pm

Tue, Dec 7
4:00 pm

Tue, Dec 7
5:00 pm

Tue, Dec 7
6:00 pm

Tue, Dec 7
7:00 pm

Tue, Dec 7
8:00 pm

Tue, Dec 7
9:00 pm

Tue, Dec 7
10:00 pm

Tue, Dec 7
11:00 pm

Wed, Dec 8
Midnight

Wed, Dec 8
1:00 am

Wed, Dec 8
2:00 am

Wed, Dec 8
3:00 am

Wed, Dec 8
4:00 am

Wed, Dec 8
5:00 am

Wed, Dec 8
6:00 am

Wed, Dec 8
7:00 am

Wed, Dec 8
8:00 am
Patchy Rain PossibleSunnyPatchy Rain PossibleSunnyPatchy Snow PossibleSunnySunnySunnySunnyClearClearClearClearClearClearClearOvercastClearClearClearClearPartly CloudyPartly CloudyOvercastPartly CloudyOvercastOvercastOvercastOvercastLight SnowLight SnowModerate SnowHeavy SnowModerate SnowModerate SnowHeavy SnowLight SnowModerate SnowHeavy SnowModerate SnowModerate SnowHeavy SnowModerate SnowModerate SnowHeavy SnowLight SnowPatchy Moderate SnowLight Snow
Patchy rain possible Sunny Patchy rain possible Sunny Patchy snow possible Sunny Sunny Sunny Sunny Clear Clear Clear Clear Clear Clear Clear Overcast Clear Clear Clear Clear Partly cloudy Partly cloudy Overcast Partly cloudy Overcast Overcast Overcast Overcast Light snow Light snow Moderate snow Heavy snow Moderate snow Moderate snow Heavy snow Light snow Moderate snow Heavy snow Moderate snow Moderate snow Heavy snow Moderate snow Moderate snow Heavy snow Light snow Patchy moderate snow Light snow
43°F
6°C
42°F
5°C
42°F
6°C
41°F
5°C
42°F
6°C
43°F
6°C
43°F
6°C
43°F
6°C
42°F
5°C
39°F
4°C
38°F
3°C
32°F
-0°C
30°F
-1°C
29°F
-2°C
27°F
-3°C
26°F
-4°C
25°F
-4°C
24°F
-4°C
24°F
-5°C
23°F
-5°C
23°F
-5°C
23°F
-5°C
23°F
-5°C
23°F
-5°C
23°F
-5°C
24°F
-4°C
26°F
-3°C
27°F
-3°C
28°F
-2°C
29°F
-2°C
29°F
-1°C
30°F
-1°C
30°F
-1°C
30°F
-1°C
29°F
-1°C
29°F
-2°C
29°F
-2°C
29°F
-2°C
29°F
-2°C
29°F
-2°C
29°F
-2°C
28°F
-2°C
28°F
-2°C
28°F
-2°C
29°F
-2°C
29°F
-2°C
28°F
-2°C
27°F
-3°C
35°F
2°C
33°F
1°C
33°F
1°C
25°F
-4°C
26°F
-3°C
25°F
-4°C
23°F
-5°C
23°F
-5°C
24°F
-5°C
22°F
-6°C
21°F
-6°C
16°F
-9°C
16°F
-9°C
13°F
-10°C
11°F
-11°C
10°F
-12°C
10°F
-12°C
9°F
-13°C
8°F
-13°C
7°F
-14°C
6°F
-15°C
5°F
-15°C
4°F
-15°C
4°F
-16°C
3°F
-16°C
3°F
-16°C
2°F
-17°C
2°F
-17°C
1°F
-17°C
1°F
-17°C
1°F
-17°C
2°F
-17°C
2°F
-17°C
5°F
-15°C
6°F
-14°C
7°F
-14°C
9°F
-13°C
11°F
-12°C
12°F
-11°C
14°F
-10°C
15°F
-10°C
16°F
-9°C
17°F
-8°C
18°F
-8°C
19°F
-8°C
19°F
-7°C
19°F
-7°C
20°F
-7°C
29.77 in
1008 mb
29.8 in
1009 mb
29.85 in
1011 mb
29.94 in
1014 mb
29.94 in
1014 mb
29.97 in
1015 mb
30 in
1016 mb
30.03 in
1017 mb
30.06 in
1018 mb
30.12 in
1020 mb
30.15 in
1021 mb
30.18 in
1022 mb
30.21 in
1023 mb
30.24 in
1024 mb
30.27 in
1025 mb
30.27 in
1025 mb
30.3 in
1026 mb
30.27 in
1025 mb
30.3 in
1026 mb
30.3 in
1026 mb
30.3 in
1026 mb
30.3 in
1026 mb
30.3 in
1026 mb
30.33 in
1027 mb
30.33 in
1027 mb
30.33 in
1027 mb
30.33 in
1027 mb
30.33 in
1027 mb
30.33 in
1027 mb
30.27 in
1025 mb
30.27 in
1025 mb
30.24 in
1024 mb
30.21 in
1023 mb
30.21 in
1023 mb
30.21 in
1023 mb
30.18 in
1022 mb
30.18 in
1022 mb
30.15 in
1021 mb
30.15 in
1021 mb
30.12 in
1020 mb
30.12 in
1020 mb
30.09 in
1019 mb
30.06 in
1018 mb
30.06 in
1018 mb
30.06 in
1018 mb
30.03 in
1017 mb
30.03 in
1017 mb
30.03 in
1017 mb
71%72%71%53%52%49%46%46%48%49%51%53%54%53%51%51%52%52%51%49%47%45%44%42%41%39%35%33%31%29%29%29%30%34%36%39%42%46%49%52%56%60%62%64%65%66%68%75%
WNWWNWWNWWNWWNWWNWWNWWNWWNWWNWWWNWWNWWNWWNWWNWWNWNWNWNWNWNWNWNWNWNWSSSWSSSWSSSEEEEEESEESEESEEEEEEENEENENE
14 mph
23 km/h
15 mph
24 km/h
17 mph
27 km/h
20 mph
32 km/h
21 mph
33 km/h
21 mph
34 km/h
20 mph
33 km/h
18 mph
30 km/h
17 mph
28 km/h
16 mph
26 km/h
15 mph
25 km/h
15 mph
25 km/h
15 mph
24 km/h
14 mph
23 km/h
13 mph
21 km/h
12 mph
20 km/h
12 mph
19 km/h
10 mph
16 km/h
9 mph
15 km/h
8 mph
13 km/h
7 mph
12 km/h
6 mph
10 km/h
5 mph
8 km/h
4 mph
7 km/h
1 mph
2 km/h
3 mph
4 km/h
1 mph
1 km/h
1 mph
1 km/h
2 mph
3 km/h
3 mph
4 km/h
2 mph
3 km/h
2 mph
4 km/h
3 mph
4 km/h
2 mph
4 km/h
3 mph
5 km/h
4 mph
6 km/h
4 mph
7 km/h
5 mph
8 km/h
5 mph
9 km/h
5 mph
8 km/h
4 mph
7 km/h
4 mph
6 km/h
4 mph
6 km/h
3 mph
5 km/h
3 mph
5 km/h
3 mph
5 km/h
2 mph
4 km/h
2 mph
3 km/h
72%0%69%0%0%0%0%0%0%0%0%0%0%0%0%0%0%0%0%0%0%0%0%0%0%0%0%0%0%0%0%0%0%0%0%0%0%0%0%0%0%0%0%0%0%0%0%0%
6 mi
10 km
6 mi
10 km
6 mi
10 km
6 mi
10 km
6 mi
9 km
6 mi
10 km
6 mi
10 km
6 mi
10 km
6 mi
10 km
6 mi
10 km
6 mi
10 km
6 mi
10 km
6 mi
10 km
6 mi
10 km
6 mi
10 km
6 mi
10 km
6 mi
10 km
6 mi
10 km
6 mi
10 km
6 mi
10 km
6 mi
10 km
6 mi
10 km
6 mi
10 km
6 mi
10 km
6 mi
10 km
6 mi
10 km
6 mi
10 km
6 mi
10 km
6 mi
10 km
6 mi
10 km
6 mi
10 km
3 mi
5 km
1 mi
2 km
3 mi
5 km
3 mi
5 km
1 mi
2 km
6 mi
10 km
3 mi
5 km
1 mi
2 km
3 mi
5 km
3 mi
5 km
1 mi
2 km
3 mi
5 km
3 mi
5 km
1 mi
2 km
6 mi
10 km
4 mi
7 km
6 mi
10 km

Day/Time
Weather
Condition
Temperature
Dew Point
Pressure
Humidity
Wind Direction
Wind Speed
Prob Precip %
Visibility
Prob Precip % = Probability of Precipitation.